Location: Pasadena, ca
(34.1243°N, 118.1037°W)
Time: 14:29:56
(UTC-08:00)

Tiangong 1 - Pass Details

Date: 12 November 2017
Orbit: 283 x 308 km, 42.8° (Epoch: 23 November)

Event Time Altitude Azimuth Distance (km) Brightness Sun altitude
Exits shadow 04:49:11 27° 45° (NE) 590 2.3 -19.5°
Drops below altitude 10° 04:51:01 10° 87° (E) 1,137 4.6 -19.1°
Sets 04:53:05 0° 99° (E) 1,961 6.4 -18.7°
